Regional Weather Roundup
Issued by NWS Little Rock, AR

Home | Current Version | Previous Version | Text Only | Print | Product List | Glossary Off
Versions: 1 2 3 4 5 6 7 8 9 10 11 12 13 14 15 16 17 18 19 20 21 22 23 24 25 26 27 28 29 30 31 32

000
ASUS44 KLZK 022105
RWRLZK

WEATHER ROUNDUP FOR ARKANSAS
NATIONAL WEATHER SERVICE LITTLE ROCK AR
300 PM CST FRI DEC 02 2016

NOTE: "FAIR" INDICATES FEW OR NO CLOUDS BELOW 12,000 FEET WITH NO
SIGNIFICANT WEATHER AND/OR OBSTRUCTIONS TO VISIBILITY.

ARZ001-003-010-029-022200-
NORTHWEST ARKANSAS

CITY           SKY/WX    TMP DP  RH WIND       PRES   REMARKS
FAYETTEVILLE   PTSUNNY   60  32  34 CALM      30.18F
FORT SMITH     MOSUNNY   63  30  28 NE8       30.18F
HARRISON       SUNNY     57  31  37 E7        30.22S
BENTONVILLE    PTSUNNY   59  28  31 CALM      30.21R
ROGERS         MOSUNNY   58  33  39 CALM      30.21S
SILOAM SPGS    CLOUDY    61  30  31 CALM      30.18S
HIGHFILL       PTSUNNY   60  33  36 E3        30.19S
SPRINGDALE     MOSUNNY   61  30  31 CALM      30.20F
$$

ARZ004-005-016-022200-
NORTH CENTRAL ARKANSAS

CITY           SKY/WX    TMP DP  RH WIND       PRES   REMARKS
BATESVILLE     SUNNY     61  34  36 E7        30.25S
FLIPPIN        SUNNY     57  28  33 CALM      30.21S
MTN HOME       SUNNY     57  29  34 E5        30.23S
$$

ARZ040-041-022200-
WEST CENTRAL ARKANSAS

CITY           SKY/WX    TMP DP  RH WIND       PRES   REMARKS
MENA           MOSUNNY   63  32  31 E3        30.18F
MOUNT IDA      CLOUDY    62  27  26 E5        30.17F
$$

ARZ009-017-025-026-028-022200-
NORTHEAST ARKANSAS

CITY           SKY/WX    TMP DP  RH WIND       PRES   REMARKS
CORNING        FAIR      54  32  43 NE5       30.28S
JONESBORO      SUNNY     56  36  47 E7        30.26S
NEWPORT        SUNNY     56  40  55 NE5       30.26S HAZE
WALNUT RIDGE   SUNNY     55  34  44 N6        30.27S
BLYTHEVILLE    SUNNY     60  34  37 CALM      30.28R
$$

ARZ022-023-033-042-044-022200-
CENTRAL ARKANSAS

CITY           SKY/WX    TMP DP  RH WIND       PRES   REMARKS
LITTLE ROCK    PTSUNNY   61  30  31 NE5       30.23R
N LITTLE ROCK    N/A     61  30  31 CALM      30.24R
JACKSONVILLE   PTSUNNY   63  29  28 E3        30.22R
SEARCY         MOSUNNY   62  31  31 CALM      30.26R
HOT SPRINGS    CLOUDY    62  27  26 CALM      30.20F
RUSSELLVILLE   MOSUNNY   62  32  32 CALM      30.21R
$$

ARZ036-022200-
EAST ARKANSAS

CITY           SKY/WX    TMP DP  RH WIND       PRES   REMARKS
WEST MEMPHIS   SUNNY     61  32  33 NW5       30.24S
$$

ARZ050-053-066-070-073-022200-
SOUTHWEST ARKANSAS

CITY           SKY/WX    TMP DP  RH WIND       PRES   REMARKS
ARKADELPHIA    FAIR      61  34  36 E3        30.21F
CAMDEN         CLOUDY    63  27  25 CALM      30.21R
TEXARKANA      CLOUDY    62  33  33 E5        30.17F
EL DORADO      CLOUDY    62  31  31 E5        30.20R
DE QUEEN       MOSUNNY   61  34  36 E9        30.15F
$$

ARZ056-057-069-022200-
SOUTHEAST ARKANSAS

CITY           SKY/WX    TMP DP  RH WIND       PRES   REMARKS
PINE BLUFF     MOSUNNY   61  38  42 E9        30.22R
STUTTGART      SUNNY     61  32  33 E5        30.24S
MONTICELLO     MOSUNNY   62  29  28 E6        30.21R

$$






USA.gov is the U.S. government's official web portal to all federal, state and local government web resources and services.